Location: Pianadetto
(44.4000°N, 10.1000°E)
Time: 23:18:13
(UTC+00:00)

Meteor 2-1 Rocket - Pass Details

Date: 26 May 2022
Orbit: 826 x 910 km, 81.3° (Epoch: 02 July)

Event Time Altitude Azimuth Distance (km) Brightness Sun altitude
Rises 02:43:54 0° 345° (NNW) 3,496 7.8 -9.2°
Reaches altitude 10° 02:46:26 10° 341° (NNW) 2,540 7.0 -8.9°
Maximum altitude 02:52:00 53° 266° (W) 1,059 4.5 -8.1°
Drops below altitude 10° 02:57:25 10° 191° (S) 2,468 6.2 -7.4°
Sets 02:59:51 0° 187° (S) 3,388 6.9 -7.0°
